Location: Poughquag
(41.6090°N, 73.6820°W)
Time: 03:34:45
(UTC-04:00)

Transit 2A Rocket - Pass Details

Date: 03 June 2020
Orbit: 584 x 919 km, 66.7° (Epoch: 06 July)

Event Time Altitude Azimuth Distance (km) Brightness Sun altitude
Rises 04:40:57 0° 340° (NNW) 3,472 8.7 -7.1°
Reaches altitude 10° 04:46:18 10° 20° (NNE) 2,591 8.8 -6.3°
Maximum altitude 04:47:19 10° 30° (NNE) 2,569 9.0 -6.2°
Drops below altitude 10° 04:48:20 10° 39° (NE) 2,604 9.4 -6.0°
Sets 04:53:47 0° 79° (ENE) 3,558 9.8 -5.2°
